CW6135 Weather Reports


time (UTC)temp
C
wind
direction
speed
KPH
gust
KPH
rain 1hr
cm
rain 24hr
cm
rain mn
cm
humidity
%
barometer
mb
20260906230005 29 248 9.7 19.3 0.00 0.00 0.00 24 1023.2
20260906225505 29 248 4.8 16.1 0.00 0.00 0.00 24 1023.5
20260906225005 29 282 8.0 19.3 0.00 0.00 0.00 23 1023.4
20260906224505 29 246 11.3 19.3 0.00 0.00 0.00 23 1023.4
20260906224005 29 255 11.3 16.1 0.00 0.00 0.00 24 1023.4
20260906223505 29 261 8.0 16.1 0.00 0.00 0.00 24 1023.5
20260906223005 28 276 6.4 19.3 0.00 0.00 0.00 24 1023.4
20260906222505 28 240 11.3 19.3 0.00 0.00 0.00 24 1023.8
20260906222005 28 236 9.7 20.9 0.00 0.00 0.00 24 1023.8
20260906221504 28 238 11.3 20.9 0.00 0.00 0.00 24 1023.8
20260906220005 28 102 3.2 16.1 0.00 0.00 0.00 24 1023.8
20260906215504 28 190 8.0 24.1 0.00 0.00 0.00 25 1023.8
20260906215005 28 238 14.5 24.1 0.00 0.00 0.00 25 1023.8
20260906214505 28 218 9.7 19.3 0.00 0.00 0.00 25 1024.0
20260906214005 28 229 4.8 12.9 0.00 0.00 0.00 24 1023.8
20260906213504 28 254 4.8 14.5 0.00 0.00 0.00 24 1024.0
20260906213005 28 200 9.7 14.5 0.00 0.00 0.00 25 1024.0
20260906212504 27 212 4.8 11.3 0.00 0.00 0.00 25 1024.0
20260906212005 27 280 3.2 19.3 0.00 0.00 0.00 25 1024.3
20260906211505 27 140 11.3 19.3 0.00 0.00 0.00 25 1024.3
20260906211005 28 252 4.8 12.9 0.00 0.00 0.00 24 1024.3
20260906210505 28 183 8.0 24.1 0.00 0.00 0.00 25 1024.4
20260906210005 28 216 16.1 24.1 0.00 0.00 0.00 24 1024.4
20260906205504 28 230 12.9 19.3 0.00 0.00 0.00 25 1024.4
20260906205007 28 192 14.5 19.3 0.00 0.00 0.00 24 1024.4
20260906204004 27 57 6.4 16.1 0.00 0.00 0.00 24 1024.8
20260906203504 28 98 6.4 22.5 0.00 0.00 0.00 24 1024.8
20260906203004 28 191 9.7 29.0 0.00 0.00 0.00 24 1024.8
20260906202504 27 140 8.0 32.2 0.00 0.00 0.00 24 1024.8
20260906201005 28 216 4.8 19.3 0.00 0.00 0.00 24 1025.2
20260906200505 28 214 9.7 19.3 0.00 0.00 0.00 26 1025.2
20260906200005 27 211 4.8 19.3 0.00 0.00 0.00 25 1025.2
20260906195505 27 198 8.0 19.3 0.00 0.00 0.00 26 1025.1
20260906195005 27 248 6.4 27.4 0.00 0.00 0.00 25 1025.1
20260906194505 27 247 11.3 27.4 0.00 0.00 0.00 25 1025.2
20260906193505 27 243 9.7 22.5 0.00 0.00 0.00 25 1025.2
20260906193005 27 183 6.4 22.5 0.00 0.00 0.00 25 1025.4
20260906192505 27 200 8.0 22.5 0.00 0.00 0.00 26 1025.4
20260906192005 27 222 12.9 19.3 0.00 0.00 0.00 26 1025.6
20260906191504 27 223 8.0 22.5 0.00 0.00 0.00 26 1025.6
20260906191005 27 215 16.1 22.5 0.00 0.00 0.00 26 1025.6
20260906190504 27 239 4.8 19.3 0.00 0.00 0.00 26 1025.6
20260906185504 27 201 6.4 20.9 0.00 0.00 0.00 25 1026.3
20260906185005 27 204 12.9 20.9 0.00 0.00 0.00 25 1026.3
20260906184505 28 203 11.3 24.1 0.00 0.00 0.00 25 1026.3
20260906183505 27 261 14.5 22.5 0.00 0.00 0.00 25 1026.3
20260906183005 27 234 9.7 20.9 0.00 0.00 0.00 25 1026.3
20260906182504 27 241 8.0 24.1 0.00 0.00 0.00 25 1026.3
20260906182005 27 217 14.5 24.1 0.00 0.00 0.00 26 1026.4
20260906181504 27 154 12.9 20.9 0.00 0.00 0.00 25 1026.3
20260906180505 26 228 9.7 19.3 0.00 0.00 0.00 25 1026.3
20260906175005 26 145 8.0 19.3 0.00 0.00 0.00 24 1026.6
20260906174505 26 169 4.8 12.9 0.00 0.00 0.00 25 1026.6
20260906174007 26 195 8.0 12.9 0.00 0.00 0.00 24 1026.6
20260906173505 25 204 8.0 11.3 0.00 0.00 0.00 25 1026.6
20260906173004 25 204 8.0 12.9 0.00 0.00 0.00 27 1026.9
20260906172504 24 194 8.0 12.9 0.00 0.00 0.00 29 1026.9
20260906171504 23 204 11.3 16.1 0.00 0.00 0.00 34 1027.1
20260906170504 22 189 11.3 16.1 0.00 0.00 0.00 34 1027.0
20260906165505 22 203 12.9 16.1 0.00 0.00 0.00 34 1027.0
20260906165004 22 198 12.9 16.1 0.00 0.00 0.00 34 1027.4
20260906164004 23 212 9.7 14.5 0.00 0.00 0.00 34 1027.1
20260906163004 23 207 11.3 19.3 0.00 0.00 0.00 34 1027.0
20260906162504 23 213 11.3 16.1 0.00 0.00 0.00 34 1027.1
20260906162005 23 221 12.9 16.1 0.00 0.00 0.00 34 1027.0
20260906161504 22 217 12.9 16.1 0.00 0.00 0.00 35 1027.0
20260906161004 22 212 11.3 19.3 0.00 0.00 0.00 36 1027.0
20260906160504 22 206 14.5 19.3 0.00 0.00 0.00 36 1027.0
20260906160005 22 205 12.9 16.1 0.00 0.00 0.00 36 1027.0
20260906155504 22 220 11.3 14.5 0.00 0.00 0.00 36 1027.2
20260906155005 21 203 9.7 11.3 0.00 0.00 0.00 37 1027.0
20260906154005 20 203 8.0 9.7 0.00 0.00 0.00 37 1027.1
20260906153504 20 192 8.0 9.7 0.00 0.00 0.00 38 1027.1
20260906153004 21 201 8.0 9.7 0.00 0.00 0.00 36 1027.1
20260906152505 21 212 4.8 8.0 0.00 0.00 0.00 38 1027.2
20260906152005 21 219 3.2 4.8 0.00 0.00 0.00 37 1027.2
20260906151504 21 211 1.6 4.8 0.00 0.00 0.00 35 1027.2
20260906150504 21 309 0.0 0.0 0.00 0.00 0.00 33 1027.3
20260906150005 21 309 0.0 4.8 0.00 0.00 0.00 34 1027.4
20260906145504 21 309 0.0 4.8 0.00 0.00 0.00 36 1027.3
20260906145004 20 34 1.6 4.8 0.00 0.00 0.00 38 1027.3
20260906144505 19 65 3.2 8.0 0.00 0.00 0.00 39 1027.3
20260906144005 18 64 4.8 8.0 0.00 0.00 0.00 40 1027.3
20260906143004 17 110 3.2 4.8 0.00 0.00 0.00 42 1027.7
20260906142504 17 116 3.2 4.8 0.00 0.00 0.00 43 1027.7
20260906142004 17 116 1.6 4.8 0.00 0.00 0.00 43 1027.8
20260906141005 16 61 1.6 4.8 0.00 0.00 0.00 46 1027.4
20260906140504 15 41 1.6 4.8 0.00 0.00 0.00 48 1027.4
20260906140005 15 55 3.2 4.8 0.00 0.00 0.00 49 1027.4
20260906135504 13 46 3.2 4.8 0.00 0.00 0.00 52 1027.2
20260906134504 12 26 6.4 14.5 0.00 0.00 0.00 56 1026.9
20260906134005 11 42 9.7 14.5 0.00 0.00 0.00 59 1027.0
20260906133504 10 45 9.7 14.5 0.00 0.00 0.00 60 1026.9
20260906133005 10 36 4.8 12.9 0.00 0.00 0.00 61 1026.9
20260906132505 10 28 8.0 12.9 0.00 0.00 0.00 60 1026.9
20260906131504 9 51 8.0 16.1 0.00 0.00 0.00 62 1026.5
20260906131004 8 46 11.3 16.1 0.00 0.00 0.00 62 1026.5
20260906130504 8 40 9.7 12.9 0.00 0.00 0.00 61 1026.4
20260906130004 9 47 9.7 11.3 0.00 0.00 0.00 61 1026.3
20260906125504 8 48 6.4 11.3 0.00 0.00 0.00 61 1026.3
20260906125004 9 49 6.4 12.9 0.00 0.00 0.00 61 1026.4
20260906124505 9 42 9.7 14.5 0.00 0.00 0.00 60 1026.3
20260906123004 8 49 9.7 14.5 0.00 0.00 0.00 64 1026.4
20260906122504 8 38 8.0 9.7 0.00 0.00 0.00 63 1026.4
20260906122005 8 38 4.8 8.0 0.00 0.00 0.00 62 1026.4
20260906121504 8 64 4.8 11.3 0.00 0.00 0.00 60 1026.4
20260906121004 10 57 3.2 11.3 0.00 0.00 0.00 57 1026.3
20260906120504 10 14 6.4 11.3 0.00 0.00 0.00 55 1026.1
20260906120004 11 51 4.8 14.5 0.00 0.00 0.00 53 1026.1
20260906115004 10 58 11.3 19.3 0.00 0.00 0.00 58 1026.2
20260906114504 9 47 11.3 19.3 0.00 0.00 0.00 60 1026.1
20260906114004 9 49 11.3 14.5 0.00 0.00 0.00 61 1026.1
20260906113505 8 41 9.7 14.5 0.00 0.00 0.00 61 1026.0
20260906113004 8 53 11.3 14.5 0.00 0.00 0.00 62 1026.0
20260906112504 8 44 9.7 11.3 0.00 0.00 0.00 60 1026.0
20260906112005 9 41 9.7 12.9 0.00 0.00 0.00 59 1026.0
20260906111504 10 41 8.0 14.5 0.00 0.00 0.00 57 1026.0
20260906111004 10 40 11.3 14.5 0.00 0.00 0.00 59 1026.2
20260906110504 9 60 8.0 14.5 0.00 0.00 0.00 63 1026.2
20260906110004 8 60 6.4 14.5 0.00 0.00 0.00 64 1025.9
20260906105504 7 45 11.3 14.5 0.00 0.00 0.00 65 1025.9
20260906105004 7 38 9.7 11.3 0.00 0.00 0.00 63 1025.9
20260906104505 8 39 9.7 11.3 0.00 0.00 0.00 62 1025.9
20260906104005 8 37 8.0 9.7 0.00 0.00 0.00 61 1025.6
20260906103505 8 33 8.0 9.7 0.00 0.00 0.00 61 1025.6
20260906103004 8 37 8.0 14.5 0.00 0.00 0.00 61 1025.6
20260906102005 9 48 9.7 11.3 0.00 0.00 0.00 60 1025.5
20260906101004 9 65 6.4 9.7 0.00 0.00 0.00 60 1025.4
20260906100505 10 48 4.8 8.0 0.00 0.00 0.00 58 1025.3
20260906100005 10 61 8.0 8.0 0.00 0.00 0.00 54 1026.0
20260906095504 11 23 4.8 9.7 0.00 0.00 0.00 54 1026.0
20260906095004 12 23 3.2 9.7 0.00 0.00 0.00 53 1026.0
20260906094004 12 48 6.4 12.9 0.00 0.00 0.00 52 1026.0
20260906093504 12 57 9.7 14.5 0.00 0.00 0.00 54 1026.0
20260906092504 12 48 8.0 12.9 0.00 0.00 0.00 54 1026.0
20260906092004 11 67 8.0 12.9 0.00 0.00 0.00 57 1025.6
20260906091504 10 54 8.0 11.3 0.00 0.00 0.00 58 1025.6
20260906091004 10 41 8.0 9.7 0.00 0.00 0.00 57 1025.4
20260906090504 10 42 8.0 11.3 0.00 0.00 0.00 55 1025.8
20260906085504 11 35 4.8 9.7 0.00 0.00 0.00 54 1025.8
20260906085004 11 39 8.0 9.7 0.00 0.00 0.00 54 1025.8
20260906084504 11 35 3.2 8.0 0.00 0.00 0.00 53 1025.9
20260906084005 11 30 3.2 12.9 0.00 0.00 0.00 53 1025.8
20260906083504 11 37 4.8 12.9 0.00 0.00 0.00 53 1025.8
20260906083004 11 35 9.7 16.1 0.00 0.00 0.00 54 1025.8
20260906082505 11 39 11.3 16.1 0.00 0.00 0.00 53 1025.8
20260906082004 11 43 9.7 14.5 0.00 0.00 0.00 52 1026.0
20260906081504 12 40 9.7 19.3 0.00 0.00 0.00 50 1026.0
20260906081004 13 36 9.7 19.3 0.00 0.00 0.00 48 1026.1
20260906080505 13 47 16.1 19.3 0.00 0.00 0.00 48 1026.1
20260906075504 13 55 12.9 19.3 0.00 0.00 0.00 50 1026.3
20260906075005 12 48 16.1 19.3 0.00 0.00 0.00 52 1026.3
20260906074504 12 40 11.3 16.1 0.00 0.00 0.00 52 1026.3
20260906074004 12 40 11.3 19.3 0.00 0.00 0.00 50 1026.3
20260906073504 12 48 9.7 19.3 0.00 0.00 0.00 50 1026.3
20260906073004 12 46 14.5 19.3 0.00 0.00 0.00 52 1026.3
20260906072004 12 34 9.7 14.5 0.00 0.00 0.00 53 1026.3
20260906071504 11 40 9.7 12.9 0.00 0.00 0.00 53 1026.2
20260906071004 11 53 9.7 14.5 0.00 0.00 0.00 53 1026.1
20260906070505 12 35 8.0 14.5 0.00 0.00 0.00 52 1026.1
20260906065004 12 36 8.0 14.5 0.00 0.00 0.00 51 1026.3
20260906064504 12 49 9.7 14.5 0.00 0.00 0.00 51 1026.2
20260906064004 12 39 11.3 14.5 0.00 0.00 0.00 52 1026.2
20260906063505 12 40 9.7 14.5 0.00 0.00 0.00 52 1026.2
20260906063004 12 35 8.0 11.3 0.00 0.00 0.00 51 1026.2
20260906061505 12 41 8.0 9.7 0.00 0.00 0.00 48 1026.0
20260906061005 12 45 4.8 9.7 0.00 0.00 0.00 50 1026.1
20260906060505 12 56 6.4 9.7 0.00 0.00 0.00 49 1026.0
20260906060005 12 64 6.4 8.0 0.00 0.00 0.00 49 1026.0
20260906055506 13 25 4.8 8.0 0.00 0.00 0.00 49 1026.0
20260906055005 13 49 8.0 8.0 0.00 0.00 0.00 48 1026.0
20260906054505 13 26 4.8 8.0 0.00 0.00 0.00 48 1026.1
20260906054005 13 39 4.8 9.7 0.00 0.00 0.00 47 1026.0
20260906053006 14 38 8.0 9.7 0.00 0.00 0.00 46 1026.0
20260906052505 14 41 4.8 8.0 0.00 0.00 0.00 46 1026.0
20260906052005 14 55 4.8 8.0 0.00 0.00 0.00 46 1026.0
20260906051505 14 40 4.8 8.0 0.00 0.00 0.00 46 1026.0
20260906051005 14 40 4.8 12.9 0.00 0.00 0.00 45 1026.0
20260906050505 15 51 4.8 12.9 0.00 0.00 0.00 45 1026.0
20260906050005 15 88 8.0 12.9 0.00 0.00 0.00 45 1026.0
20260906045505 15 52 4.8 9.7 0.00 0.00 0.00 44 1026.0
20260906044505 16 53 4.8 14.5 0.00 0.00 0.00 42 1026.0
20260906044005 16 106 11.3 14.5 0.00 0.00 0.00 43 1025.9
20260906043505 15 51 4.8 11.3 0.00 0.00 0.00 44 1025.9
20260906043005 15 36 4.8 9.7 0.00 0.00 0.00 42 1025.9
20260906042505 16 34 8.0 14.5 0.00 0.00 0.00 40 1026.0
20260906042005 17 49 4.8 14.5 0.00 0.00 0.00 38 1025.9
20260906041005 17 98 6.4 9.7 0.00 0.00 0.00 40 1025.9
20260906035505 18 76 3.2 4.8 0.00 0.00 0.00 36 1025.8
20260906035005 20 158 3.2 4.8 0.00 0.00 0.00 36 1025.5
20260906034505 20 150 1.6 4.8 0.00 0.00 0.00 35 1025.5
20260906034004 21 146 3.2 4.8 0.00 0.00 0.00 34 1025.5
20260906033505 21 161 3.2 11.3 0.00 0.00 0.00 34 1025.5
20260906032506 21 148 6.4 12.9 0.00 0.00 0.00 33 1025.5
20260906032005 22 142 8.0 12.9 0.00 0.00 0.00 33 1025.5
20260906031005 22 133 4.8 14.5 0.00 0.00 0.00 33 1025.5
20260906030505 22 130 3.2 14.5 0.00 0.00 0.00 33 1025.5
20260906030005 22 160 8.0 14.5 0.00 0.00 0.00 33 1025.5
20260906025505 22 144 4.8 14.5 0.00 0.00 0.00 33 1025.2
20260906024505 22 136 6.4 12.9 0.00 0.00 0.00 33 1025.2
20260906024005 22 150 8.0 19.3 0.00 0.00 0.00 32 1025.2
20260906023505 22 145 9.7 19.3 0.00 0.00 0.00 32 1025.0
20260906023005 23 153 9.7 19.3 0.00 0.00 0.00 32 1025.0
20260906022505 23 158 12.9 19.3 0.00 0.00 0.00 32 1024.9
20260906022005 23 155 8.0 14.5 0.00 0.00 0.00 32 1024.8
20260906021505 23 156 9.7 14.5 0.00 0.00 0.00 33 1024.8
20260906021006 23 165 9.7 14.5 0.00 0.00 0.00 33 1024.8
20260906020005 23 165 9.7 14.5 0.00 0.00 0.00 33 1024.6
20260906015505 23 170 9.7 14.5 0.00 0.00 0.00 33 1024.6
20260906015005 23 161 8.0 12.9 0.00 0.00 0.00 33 1024.6
20260906014005 23 172 8.0 14.5 0.00 0.00 0.00 32 1024.5
20260906013505 23 178 8.0 16.1 0.00 0.00 0.00 31 1024.6
20260906013005 24 168 9.7 16.1 0.00 0.00 0.00 31 1024.7
20260906012505 24 176 9.7 16.1 0.00 0.00 0.00 31 1024.7
20260906012005 24 184 6.4 9.7 0.00 0.00 0.00 31 1024.7
20260906011505 24 190 6.4 11.3 0.00 0.00 0.00 31 1024.7
20260906011005 25 196 8.0 12.9 0.00 0.00 0.00 30 1024.5
20260906005505 25 193 11.3 16.1 0.00 0.00 0.00 28 1024.5
20260906005005 25 187 9.7 19.3 0.00 0.00 0.00 28 1024.5
20260906004505 26 197 12.9 19.3 0.00 0.00 0.00 28 1024.5
20260906004004 26 195 12.9 19.3 0.00 0.00 0.00 28 1024.5
20260906003505 26 198 12.9 19.3 0.00 0.00 0.00 27 1024.5
20260906002504 26 199 9.7 19.3 0.00 0.00 0.00 27 1024.4
20260906002004 26 189 12.9 20.9 0.00 0.00 0.00 26 1024.4
20260906001505 26 187 16.1 20.9 0.00 0.00 0.00 27 1024.3
20260906001004 26 184 14.5 20.9 0.00 0.00 0.00 26 1024.3
20260906000505 26 196 14.5 20.9 0.00 0.00 0.00 28 1024.3
20260906000005 27 193 14.5 20.9 0.00 0.00 0.00 28 1024.3
20260905235505 27 194 12.9 20.9 0.00 0.00 0.00 26 1024.2
20260905235005 27 205 11.3 20.9 0.00 0.00 0.00 26 1024.2
20260905234505 27 203 16.1 20.9 0.00 0.00 0.00 27 1024.4
20260905234005 27 183 16.1 22.5 0.00 0.00 0.00 27 1024.6
20260905233504 27 209 17.7 22.5 0.00 0.00 0.00 27 1024.6
20260905233005 27 179 14.5 22.5 0.00 0.00 0.00 26 1024.3
20260905232505 28 196 14.5 22.5 0.00 0.00 0.00 27 1024.6
20260905232005 28 163 16.1 22.5 0.00 0.00 0.00 26 1024.4
20260905231505 28 239 11.3 25.7 0.00 0.00 0.00 26 1024.4
20260905230504 27 181 16.1 25.7 0.00 0.00 0.00 27 1024.5